Location: Cerbedi�res
(48.2182°N, 1.4849°W)
Time: 11:11:52
(UTC+00:00)

Cosmos 1844 Rocket - Pass Details

Date: 03 March 2021
Orbit: 826 x 843 km, 71.0° (Epoch: 10 April)

Event Time Altitude Azimuth Distance (km) Brightness Sun altitude
Rises 18:20:53 0° 335° (NNW) 3,377 6.1 -5.4°
Reaches altitude 10° 18:23:30 10° 343° (NNW) 2,439 5.3 -5.8°
Maximum altitude 18:28:43 39° 52° (NE) 1,220 3.2 -6.7°
Drops below altitude 10° 18:33:55 10° 121° (ESE) 2,427 4.6 -7.5°
Enters shadow 18:36:06 - 128° (SE) 3,216 5.3 -7.9°
